DW4212 Weather Reports


Display with metric or nautical units.
time (UTC)temp
F
wind
direction
speed
MPH
gust
MPH
rain 1hr
in
rain 24hr
in
rain mn
in
humidity
%
barometer
mb
20260831222925 69 34 0.0 0.0 0.00 0.00 0.00 42 1021.7
20260831221918 69 34 0.0 0.0 0.00 0.00 0.00 42 1021.7
20260831220926 70 34 0.0 0.0 0.00 0.00 0.00 40 1021.7
20260831215926 71 34 0.0 0.0 0.00 0.00 0.00 40 1021.7
20260831214915 71 34 0.0 0.0 0.00 0.00 0.00 39 1021.7
20260831213928 72 34 0.0 0.0 0.00 0.00 0.00 38 1021.7
20260831212928 73 35 0.0 4.0 0.00 0.00 0.00 37 1021.7
20260831211916 73 36 0.0 0.0 0.00 0.00 0.00 36 1021.7
20260831210925 74 36 0.0 0.0 0.00 0.00 0.00 35 1021.7
20260831205930 74 36 0.0 0.0 0.00 0.00 0.00 35 1021.6
20260831204919 75 36 0.0 6.0 0.00 0.00 0.00 35 1021.5
20260831203929 75 51 2.0 5.0 0.00 0.00 0.00 33 1021.4
20260831203012 76 177 0.0 0.0 0.00 0.00 0.00 31 1021.3
20260831201916 77 177 0.0 0.0 0.00 0.00 0.00 30 1021.2
20260831200929 77 177 0.0 0.0 0.00 0.00 0.00 30 1021.1
20260831195911 77 177 0.0 0.0 0.00 0.00 0.00 30 1020.9
20260831194921 77 177 0.0 0.0 0.00 0.00 0.00 30 1020.8
20260831193912 77 177 0.0 2.0 0.00 0.00 0.00 29 1020.7
20260831192915 78 177 0.0 0.0 0.00 0.00 0.00 29 1020.6
20260831191923 78 177 0.0 3.0 0.00 0.00 0.00 28 1020.6
20260831190911 79 177 0.0 0.0 0.00 0.00 0.00 27 1020.4
20260831185911 80 177 0.0 0.0 0.00 0.00 0.00 26 1020.4
20260831184918 81 177 0.0 0.0 0.00 0.00 0.00 26 1020.5
20260831183930 81 177 0.0 0.0 0.00 0.00 0.00 25 1020.5
20260831182929 82 177 0.0 0.0 0.00 0.00 0.00 25 1020.5
20260831181916 83 177 0.0 3.0 0.00 0.00 0.00 24 1020.5
20260831180923 84 177 0.0 8.0 0.00 0.00 0.00 24 1020.5
20260831175921 84 168 0.0 3.0 0.00 0.00 0.00 25 1020.6
20260831174912 85 168 1.0 5.0 0.00 0.00 0.00 24 1020.4
20260831173920 86 168 0.0 6.0 0.00 0.00 0.00 24 1020.5
20260831172919 86 167 0.0 4.0 0.00 0.00 0.00 24 1020.5
20260831171923 86 166 0.0 5.0 0.00 0.00 0.00 23 1020.5
20260831170911 87 180 2.0 6.0 0.00 0.00 0.00 23 1020.5
20260831165912 87 187 3.0 8.0 0.00 0.00 0.00 22 1020.6
20260831164922 88 189 0.0 5.0 0.00 0.00 0.00 22 1020.5
20260831163929 87 182 1.0 8.0 0.00 0.00 0.00 23 1020.4
20260831162930 87 180 1.0 8.0 0.00 0.00 0.00 23 1020.4
20260831161917 87 175 0.0 7.0 0.00 0.00 0.00 24 1020.6
20260831160926 87 203 1.0 10.0 0.00 0.00 0.00 24 1020.6
20260831155925 88 191 1.0 8.0 0.00 0.00 0.00 23 1020.7
20260831154914 88 189 1.0 6.0 0.00 0.00 0.00 23 1020.8
20260831153922 87 236 1.0 8.0 0.00 0.00 0.00 24 1020.8
20260831152924 88 182 1.0 6.0 0.00 0.00 0.00 24 1020.8
20260831151929 88 185 2.0 9.0 0.00 0.00 0.00 23 1020.9
20260831150911 87 173 1.0 3.0 0.00 0.00 0.00 25 1020.9
20260831145912 87 172 2.0 9.0 0.00 0.00 0.00 23 1021.0
20260831144923 88 207 0.0 6.0 0.00 0.00 0.00 24 1021.0
20260831143911 87 198 2.0 7.0 0.00 0.00 0.00 25 1021.1
20260831142912 86 65 0.0 0.0 0.00 0.00 0.00 27 1021.1
20260831141918 87 63 0.0 4.0 0.00 0.00 0.00 26 1021.1
20260831140925 87 195 1.0 7.0 0.00 0.00 0.00 26 1021.3
20260831135924 86 177 0.0 5.0 0.00 0.00 0.00 26 1021.4
20260831134916 87 183 0.0 4.0 0.00 0.00 0.00 25 1021.6
20260831133921 87 183 0.0 8.0 0.00 0.00 0.00 25 1021.6
20260831132922 86 180 1.0 6.0 0.00 0.00 0.00 26 1021.7
20260831131927 86 179 2.0 7.0 0.00 0.00 0.00 27 1021.7
20260831130913 85 178 0.0 5.0 0.00 0.00 0.00 28 1021.8
20260831125918 84 178 1.0 5.0 0.00 0.00 0.00 29 1021.9
20260831124926 84 178 0.0 8.0 0.00 0.00 0.00 29 1021.9
20260831123912 84 177 0.0 6.0 0.00 0.00 0.00 30 1022.0
20260831122931 84 178 2.0 6.0 0.00 0.00 0.00 30 1022.1
20260831121918 85 178 0.0 7.0 0.00 0.00 0.00 29 1022.2
20260831120925 84 175 0.0 5.0 0.00 0.00 0.00 29 1022.4
20260831115927 83 173 0.0 9.0 0.00 0.00 0.00 30 1022.4
20260831114912 83 178 0.0 6.0 0.00 0.00 0.00 30 1022.5
20260831113917 83 180 1.0 5.0 0.00 0.00 0.00 31 1022.6
20260831112912 82 180 2.0 9.0 0.00 0.00 0.00 32 1022.6
20260831111920 81 191 2.0 8.0 0.00 0.00 0.00 33 1022.6
20260831110929 83 197 0.0 5.0 0.00 0.00 0.00 32 1022.7
20260831105930 83 188 0.0 6.0 0.00 0.00 0.00 32 1022.7
20260831104918 82 190 0.0 7.0 0.00 0.00 0.00 33 1022.8
20260831103926 81 160 0.0 8.0 0.00 0.00 0.00 33 1022.8
20260831102924 81 158 0.0 8.0 0.00 0.00 0.00 34 1022.8
20260831101913 79 148 0.0 5.0 0.00 0.00 0.00 35 1022.8
20260831100921 81 182 0.0 3.0 0.00 0.00 0.00 34 1022.8
20260831095927 80 182 0.0 5.0 0.00 0.00 0.00 35 1022.8
20260831094914 79 182 0.0 6.0 0.00 0.00 0.00 36 1022.7
20260831094009 79 173 1.0 8.0 0.00 0.00 0.00 37 1022.7
20260831092926 78 110 0.0 4.0 0.00 0.00 0.00 37 1022.7
20260831091912 77 29 0.0 0.0 0.00 0.00 0.00 38 1022.7
20260831090920 76 26 0.0 0.0 0.00 0.00 0.00 39 1022.8
20260831085920 75 26 0.0 0.0 0.00 0.00 0.00 41 1022.7
20260831084925 74 26 0.0 0.0 0.00 0.00 0.00 43 1022.7
20260831083915 73 26 0.0 0.0 0.00 0.00 0.00 44 1022.6
20260831082917 72 26 0.0 0.0 0.00 0.00 0.00 46 1022.6
20260831081926 0 0.0 0.0 0.00 0.00 0.00 1022.6
20260831080913 0 0.0 0.0 0.00 0.00 0.00 1022.6
20260831075913 0 0.0 0.0 0.00 0.00 0.00 1022.6
20260831074925 0 0.0 0.0 0.00 0.00 0.00 1022.6
20260831073914 0 0.0 0.0 0.00 0.00 0.00 1022.6
20260831072916 0 0.0 0.0 0.00 0.00 0.00 1022.7
20260831071924 0 0.0 0.0 0.00 0.00 0.00 1022.6
20260831070921 0 0.0 0.0 0.00 0.00 0.00 1022.6
20260831070001 0 0.0 0.0 0.00 0.00 0.00 1022.6
20260831064924 0 0.0 0.0 0.00 0.00 0.00 1022.5
20260831063913 0 0.0 0.0 0.00 0.00 0.00 1022.5
20260831062914 0 0.0 0.0 0.00 0.00 0.00 1022.5
20260831061922 0 0.0 0.0 0.00 0.00 0.00 1022.4
20260831055925 0 0.0 0.0 0.00 0.00 0.00 1022.4
20260831054912 0 0.0 0.0 0.00 0.00 0.00 1022.4
20260831053920 0 0.0 0.0 0.00 0.00 0.00 1022.3
20260831052921 0 0.0 0.0 0.00 0.00 0.00 1022.2
20260831051912 0 0.0 0.0 0.00 0.00 0.00 1022.1
20260831050921 0 0.0 0.0 0.00 0.00 0.00 1022.1
20260831045929 0 0.0 0.0 0.00 0.00 0.00 1022.1
20260831044918 0 0.0 0.0 0.00 0.00 0.00 1022.0
20260831043911 0 0.0 0.0 0.00 0.00 0.00 1022.0
20260831042927 0 0.0 0.0 0.00 0.00 0.00 1022.0
20260831041917 0 0.0 0.0 0.00 0.00 0.00 1022.0
20260831040926 0 0.0 0.0 0.00 0.00 0.00 1022.0
20260831035930 0 0.0 0.0 0.00 0.00 0.00 1022.0
20260831034919 0 0.0 0.0 0.00 0.00 0.00 1022.0
20260831033928 0 0.0 0.0 0.00 0.00 0.00 1022.0
20260831032929 0 0.0 0.0 0.00 0.00 0.00 1022.0
20260831030917 0 0.0 0.0 0.00 0.00 0.00 1021.9
20260831025928 0 0.0 0.0 0.00 0.00 0.00 1021.9
20260831024917 0 0.0 0.0 0.00 0.00 0.00 1021.8
20260831023926 0 0.0 0.0 0.00 0.00 0.00 1021.9
20260831022947 0 0.0 0.0 0.00 0.00 0.00 1021.8
20260831021930 0 0.0 0.0 0.00 0.00 0.00 1021.8
20260831020919 0 0.0 0.0 0.00 0.00 0.00 1021.8
20260831015922 0 0.0 0.0 0.00 0.00 0.00 1021.8
20260831014930 0 0.0 0.0 0.00 0.00 0.00 1021.8
20260831013921 0 0.0 0.0 0.00 0.00 0.00 1021.8
20260831012922 0 0.0 0.0 0.00 0.00 0.00 1021.8
20260831011922 0 0.0 0.0 0.00 0.00 0.00 1021.8
20260831010911 0 0.0 0.0 0.00 0.00 0.00 1021.8
20260831005940 66 24 1.0 5.0 0.00 0.00 0.00 52 1021.9
20260831004949 66 24 1.0 5.0 0.00 0.00 0.00 52 1021.9
20260831003935 66 27 2.0 4.0 0.00 0.00 0.00 52 1021.9
20260831002937 66 30 1.0 5.0 0.00 0.00 0.00 52 1021.8
20260831002012 67 30 0.0 4.0 0.00 0.00 0.00 52 1021.8
20260831000947 67 31 0.0 6.0 0.00 0.00 0.00 52 1021.8
20260830235948 67 34 1.0 4.0 0.00 0.00 0.00 52 1021.8
20260830234935 67 34 1.0 5.0 0.00 0.00 0.00 51 1021.9
20260830233945 67 40 1.0 5.0 0.00 0.00 0.00 51 1021.9
20260830232949 68 28 1.0 6.0 0.00 0.00 0.00 51 1021.8
20260830231937 68 37 2.0 6.0 0.00 0.00 0.00 51 1021.8
20260830225944 68 36 1.0 5.0 0.00 0.00 0.00 52 1021.7
20260830224948 69 30 1.0 6.0 0.00 0.00 0.00 52 1021.7
20260830223937 69 26 0.0 5.0 0.00 0.00 0.00 52 1021.7